Regional Weather Roundup
Issued by NWS Charleston, SC

Current Version | Previous Version | Graphics & Text | Print | Product List | Glossary On
Versions: 1 2 3 4 5 6 7 8 9 10 11 12 13 14 15 16 17 18 19 20 21 22 23 24 25 26 27 28 29 30 31 32 33 34 35 36 37 38 39 40 41 42 43 44 45 46 47 48 49 50
138 ASUS42 KCHS 280527 RWRCHS REGIONAL WEATHER ROUNDUP NATIONAL WEATHER SERVICE CHARLESTON SC 100 AM EDT TUE MAR 28 2017 NOTE: "FAIR" INDICATES FEW OR NO CLOUDS BELOW 12,000 FEET WITH NO SIGNIFICANT WEATHER AND/OR OBSTRUCTIONS TO VISIBILITY. NOT ALL STATIONS ARE QUALITY CONTROLLED. USE DATA WITH CAUTION... ESPECIALLY DEWPOINT OBSERVATIONS. SCZ027-030-031-034>040-042>050-280600- ...SOUTHEAST SOUTH CAROLINA... CITY SKY/WX TMP DP RH WIND PRES REMARKS N CHARLESTON CLOUDY 67 59 75 S9 30.02F WATERFRONT PRK N/A 66 62 87 S6 30.03F JOHNS ISLAND CLOUDY 64 63 94 S7 30.03F PINOPOLIS N/A 64 61 88 VRB2 29.94F MONCKS CORNER FAIR 63 57 82 S5 30.02F SUMMERVILLE FAIR 63 59 88 S5 30.03S BEAUFORT MCAS CLEAR 66 63 90 S5 30.03F BEAUFORT ARPT FAIR 64 61 88 S7 30.03S HILTON HEAD IS CLEAR 66 63 88 S7 30.04F WALTERBORO PTCLDY 63 59 88 S5 30.03F ALLENDALE CLOUDY 64 59 82 VRB5 30.01S ...SOUTHERN MIDLANDS AND PEE DEE... CITY SKY/WX TMP DP RH WIND PRES REMARKS GEORGETOWN CLOUDY 61 59 94 CALM 30.04F KINGSTREE FAIR 63 55 77 SE5 30.01F ORANGEBURG PTCLDY 65 58 78 S10 30.01F BARNWELL FAIR 66 59 77 S6 30.01S AIKEN FAIR 64 55 72 S7 30.03S MANNING FAIR 63 57 82 CALM 30.02R COLUMBIA PTCLDY 68 57 68 S10 29.98F SUMTER CLEAR 64 57 78 S6 29.99R FLORENCE CLEAR 63 58 83 S8 30.01S MYRTLE BEACH CLOUDY 66 60 81 S8 30.04F N MYRTLE BEACH MOCLDY 66 61 84 S10 30.03F $$ GAZ063-065-086>088-099>101-113>116-118-119-134>141-150-280600- ...SOUTHEAST GEORGIA... CITY SKY/WX TMP DP RH WIND PRES REMARKS SAVANNAH ARPT CLOUDY 65 59 81 S7 30.03F HUNTER AAF PTCLDY 66 62 89 CALM 30.01F FORT STEWART CLOUDY 64 59 82 S3 30.02R STATESBORO CLOUDY 68 61 77 S9 30.03R SYLVANIA CLOUDY N/A N/A N/A SW5 30.03S CLAXTON CLOUDY N/A N/A N/A S3 30.03S ...CSRA...CENTRAL AND FAR SOUTHEAST GEORGIA... CITY SKY/WX TMP DP RH WIND PRES REMARKS THOMSON PTCLDY 68 60 75 SW7 30.03S AUGUSTA-BUSH CLOUDY 70 59 68 S10 29.98S AUGUSTA-DANIEL CLOUDY 70 58 65 S8 29.99S SWAINSBORO FAIR 68 55 64 S7 30.02S VIDALIA MOCLDY 70 57 64 S7 30.02F EASTMAN MOCLDY 70 51 52 S5 30.03S HAZLEHURST FAIR 69 60 74 S5 30.01F ALMA PTCLDY 68 59 73 S8 30.03S WAYCROSS CLOUDY 72 62 71 S8 30.04S JESUP MOCLDY 64 59 82 CALM 30.05S BAXLEY CLOUDY 70 63 78 S6 30.03S BRUNSWICK CLOUDY 70 64 83 S6 30.05S SAINT SIMONS MOCLDY 68 63 84 VRB5 30.04S $$ SCZ027-028-034-036>038-045-046-048>050-GAZ119-141-280600- ...LAKE AND SUPPLEMENTAL COASTAL OBSERVATIONS... STATION/POSITION TIME TEMP WIND PRES WAVE SWELL AIR SEA DIR/SP/G HT/PER HT/PER/DIR (UTC) (F) (DEG/KT/KT) (MB) (FT/S) (FT/S/D) WINYAH BAY 0445 62 290/ 1 1017.0S LAKE MURRAY 0450 66 170/ 9/ 12 1014.6F ACE BASIN NERRS 0445 64 CALM 1017.0S FORT PULASKI 0500 66 64 190/ 3/ 7 1017.4 SAPELO ISLAND 0500 66 170/ 5 1017.0 $$ ANZ835-935-AMZ111-154-330-350-352-354-370-450-454-472-280600- ...C-MAN AND BUOY OBSERVATIONS... STATION/POSITION TIME TEMP WIND PRES WAVE SWELL AIR SEA DIR/SP/G HT/PER HT/PER/DIR (UTC) (F) (DEG/KT/KT) (MB) (FT/S) (FT/S/D) BUOY 41004 0450 72 70 180/ 8/ 10 1017.3S 5/11 5/130/11 BUOY 41008 0450 65 63 150/ 8/ 10 1016.8F 3/11 3/100/11 FOLLY BEACH CMAN 0500 66 180/ 8/ 9 1017.5F CAPERS NEARSHORE 0508 64 190/ 6/ 8 1017.0F FRIPP NEARSHORE 0508 64 63 190/ 6/ 8 1016.8F STATION/POSITION TIME TEMP WIND PRES WAVE SWELL AIR SEA DIR/SP/G HT/PER HT/PER/DIR (UTC) (F) (DEG/KT/KT) (MB) (FT/S) (FT/S/D) 5E ST. MARYS GA 0500 67 N/A 3/11 2/120/11 FRYING PAN BUOY 0510 72 74 180/ 12/ 14 1016.9 BUOY 41025 0450 72 74 190/ 17/ 19 1016.6F 5/ 9 5/140/ 9 CAPE LOOKOUT NC 0500 66 180/ 8/ 9 1016.5F BUOY 41002 0450 68 72 100/ 6/ 8 1018.3F 5/10 5/110/10 BUOY 41010 NOT AVBL ST AUGUSTINE FL 0500 69 71 160/ 10/ 11 1018.3F $$

USA.gov is the U.S. government's official web portal to all federal, state and local government web resources and services.